星链-31106 (STARLINK-31106 )

导读 | 星芒AI

STARLINK-31106 是 SpaceX Starlink 卫星互联网项目中的一颗低轨卫星,属于 Starlink 群体部署的一部分。该卫星由 SpaceX 制造并发射,旨在为全球用户提供高速、低延迟的宽带互联网服务。它运行在约 550 公里的轨道高度,配备先进通信设备,支持全球范围内的网络连接,尤其服务于传统网络难以覆盖的偏远地区。STARLINK-31106 的部署有助于提升 Starlink 网络的覆盖密度和稳定性,推动全球互联网普及。

基本信息
目录编号:
58689
目录名称:
STARLINK-31106
国际标识:
2023-211Y
轨道中心:
EARTH
卫星名称:
星链-31106
卫星全名:
星链-31106 (STARLINK-31106 )
卫星状态:
在轨 (已飞行721 天)
发射日期:
2023-12-29 UTC
国别 :
美国 (US)
星等 :
--
轨道信息
数据来源 国际轨道数据
星历时间: 2025-12-18T22:30:20+0800
1天前
查看轨道信息
半长轴: 6861.154km
偏心率: 0.0001564
轨道倾角: 43.002°
近地点辐角 266.683°
升交点赤经 183.206°
平近点角 93.385°
近地点: 481.945km
远地点: 484.093km
周期: 94.266分钟
每日圈数: 15.275908
详细信息
固有亮度:
5
最大亮度:
0.3
卫星平台:
Starlink v2.0 mini
覆盖范围:
全球
运营商:
太空探索技术公司
运营商所在国:
美国
制造商(研发单位):
太空探索技术公司
制造商所在国:
美国
使用方式:
暂无
卫星简介
星链(Starlink)计划是由太空探索技术公司(SpaceX)提出的一个巨型低轨卫星互联网星座项目,计划在2019年至2024年间在太空搭建由约1.2万颗卫星组成的“星链”网络,其中1584颗将部署在地球上空550千米处的近地轨道,并从2020年开始工作。该卫星仍在工作。
2D轨道图
3D轨道图
轨道高度分析图
轨道倾角分析图
轨道综合分析图
查看轨道综合分析图